Hourly Weather Larne

Today, 18 January, Monday

Time Temperature Precipitation Wind Pressure Humidity
00:00 +2°C° 0 mm 9 mps 760 mmHg 87%
01:00 +2°C° 0 mm 9 mps 760 mmHg 87%
02:00 +2°C° 0 mm 9 mps 760 mmHg 87%
03:00 +2°C° 0 mm 9 mps 759 mmHg 87%
04:00 +2°C° 0.1 mm 8 mps 759 mmHg 87%
05:00 +2°C° 0.1 mm 8 mps 759 mmHg 88%
06:00 +1°C° 0.1 mm 8 mps 759 mmHg 88%
07:00 +1°C° 0.1 mm 8 mps 758 mmHg 89%
08:00 +2°C° 0.1 mm 7 mps 758 mmHg 90%
09:00 +2°C° 0.1 mm 7 mps 758 mmHg 91%
10:00 +3°C° 0 mm 7 mps 757 mmHg 89%
11:00 +3°C° 0 mm 7 mps 757 mmHg 87%
12:00 +4°C° 0 mm 7 mps 757 mmHg 85%
13:00 +4°C° 0 mm 7 mps 756 mmHg 86%
14:00 +4°C° 0 mm 6 mps 755 mmHg 87%
15:00 +4°C° 0 mm 6 mps 754 mmHg 88%
16:00 +5°C° 0.4 mm 5 mps 754 mmHg 91%
17:00 +4°C° 0.4 mm 4 mps 753 mmHg 94%
18:00 +4°C° 0.4 mm 3 mps 752 mmHg 97%
19:00 +4°C° 0.8 mm 3 mps 751 mmHg 97%
20:00 +6°C° 0.8 mm 2 mps 751 mmHg 97%
21:00 +7°C° 0.8 mm 1 mps 750 mmHg 98%
22:00 +7°C° 0.6 mm 1 mps 749 mmHg 97%
23:00 +7°C° 0.6 mm 1 mps 749 mmHg 97%

Tomorrow, 19 January, Tuesday

Time Temperature Precipitation Wind Pressure Humidity
00:00 +7°C° 0.6 mm 1 mps 748 mmHg 97%
01:00 +7°C° 0.7 mm 1 mps 747 mmHg 97%
02:00 +7°C° 0.7 mm 1 mps 746 mmHg 97%
03:00 +6°C° 0.7 mm 1 mps 745 mmHg 97%
04:00 +6°C° 0.4 mm 1 mps 745 mmHg 96%
05:00 +6°C° 0.4 mm 1 mps 745 mmHg 96%
06:00 +6°C° 0.4 mm 1 mps 744 mmHg 95%
07:00 +6°C° 0.3 mm 1 mps 744 mmHg 95%
08:00 +6°C° 0.3 mm 1 mps 744 mmHg 94%
09:00 +6°C° 0.3 mm 1 mps 743 mmHg 94%
10:00 +6°C° 0.7 mm 1 mps 743 mmHg 93%
11:00 +5°C° 0.7 mm 2 mps 742 mmHg 93%
12:00 +5°C° 0.7 mm 2 mps 742 mmHg 92%
13:00 +5°C° 1.1 mm 2 mps 741 mmHg 94%
14:00 +4°C° 1.1 mm 3 mps 740 mmHg 95%
15:00 +3°C° 1.1 mm 3 mps 739 mmHg 97%
16:00 +3°C° 0.9 mm 3 mps 738 mmHg 97%
17:00 +3°C° 0.9 mm 3 mps 738 mmHg 97%
18:00 +3°C° 0.9 mm 4 mps 738 mmHg 97%
19:00 +3°C° 0.9 mm 4 mps 737 mmHg 97%
20:00 +3°C° 0.9 mm 4 mps 737 mmHg 97%
21:00 +3°C° 0.9 mm 4 mps 736 mmHg 97%
22:00 +3°C° 0.5 mm 4 mps 736 mmHg 97%
23:00 +3°C° 0.5 mm 4 mps 736 mmHg 96%

Day after tomorrow, 20 January, Wednesday

Time Temperature Precipitation Wind Pressure Humidity
00:00 +3°C° 0.5 mm 4 mps 736 mmHg 96%
01:00 +3°C° 0 mm 4 mps 736 mmHg 94%
02:00 +1°C° 0 mm 4 mps 736 mmHg 93%
03:00 +1°C° 0 mm 4 mps 736 mmHg 91%
04:00 +2°C° 0 mm 3 mps 735 mmHg 90%
05:00 +1°C° 0 mm 3 mps 735 mmHg 89%
06:00 +1°C° 0 mm 3 mps 735 mmHg 88%
07:00 +1°C° 0 mm 3 mps 735 mmHg 87%
08:00 +1°C° 0 mm 3 mps 734 mmHg 87%
09:00 +1°C° 0 mm 3 mps 734 mmHg 87%
10:00 0°C° 0 mm 4 mps 734 mmHg 86%
11:00 +1°C° 0 mm 4 mps 733 mmHg 84%
12:00 +3°C° 0 mm 4 mps 733 mmHg 83%
13:00 +2°C° 0 mm 5 mps 732 mmHg 83%
14:00 +1°C° 0 mm 5 mps 731 mmHg 83%
15:00 +1°C° 0 mm 5 mps 730 mmHg 83%
16:00 +1°C° 0.1 mm 6 mps 729 mmHg 85%
17:00 -1°C° 0.1 mm 6 mps 729 mmHg 86%
18:00 -1°C° 0.1 mm 6 mps 728 mmHg 88%
19:00 -1°C° 0.7 mm 7 mps 727 mmHg 90%
20:00 -1°C° 0.7 mm 8 mps 726 mmHg 92%
21:00 -1°C° 0.7 mm 9 mps 725 mmHg 94%
22:00 -1°C° 0.8 mm 9 mps 724 mmHg 94%
23:00 -2°C° 0.8 mm 10 mps 723 mmHg 95%

21 January, Thursday

Time Temperature Precipitation Wind Pressure Humidity
00:00 -3°C° 0.8 mm 10 mps 723 mmHg 95%
01:00 -2°C° 0.5 mm 11 mps 722 mmHg 93%
02:00 -2°C° 0.5 mm 11 mps 721 mmHg 91%
03:00 -1°C° 0.5 mm 11 mps 721 mmHg 89%
04:00 -1°C° 0.4 mm 11 mps 720 mmHg 89%
05:00 -1°C° 0.4 mm 11 mps 720 mmHg 88%
06:00 -1°C° 0.4 mm 12 mps 720 mmHg 88%
07:00 -1°C° 0.1 mm 12 mps 719 mmHg 90%
08:00 -1°C° 0.1 mm 12 mps 719 mmHg 93%
09:00 0°C° 0.1 mm 12 mps 719 mmHg 95%
10:00 +1°C° 0.3 mm 11 mps 719 mmHg 95%
11:00 -1°C° 0.3 mm 11 mps 719 mmHg 96%
12:00 0°C° 0.3 mm 10 mps 720 mmHg 96%
13:00 -1°C° 0.3 mm 11 mps 720 mmHg 96%
14:00 +1°C° 0.3 mm 11 mps 720 mmHg 96%
15:00 +1°C° 0.3 mm 11 mps 720 mmHg 95%
16:00 +1°C° 0.6 mm 11 mps 721 mmHg 95%
17:00 0°C° 0.6 mm 12 mps 721 mmHg 95%
18:00 -1°C° 0.6 mm 12 mps 722 mmHg 95%
19:00 0°C° 1 mm 13 mps 723 mmHg 95%
20:00 0°C° 1 mm 13 mps 723 mmHg 95%
21:00 0°C° 1 mm 14 mps 724 mmHg 94%
22:00 0°C° 0.5 mm 14 mps 724 mmHg 94%
23:00 0°C° 0.5 mm 14 mps 725 mmHg 94%

22 January, Friday

Time Temperature Precipitation Wind Pressure Humidity
00:00 0°C° 0.5 mm 13 mps 726 mmHg 93%
01:00 0°C° 0.3 mm 13 mps 727 mmHg 93%
02:00 0°C° 0.3 mm 13 mps 728 mmHg 92%
03:00 0°C° 0.3 mm 13 mps 729 mmHg 92%
04:00 -1°C° 0.2 mm 12 mps 730 mmHg 92%
05:00 -1°C° 0.2 mm 12 mps 731 mmHg 92%
06:00 -1°C° 0.2 mm 12 mps 732 mmHg 92%
07:00 -1°C° 0.1 mm 11 mps 732 mmHg 90%
08:00 -2°C° 0.1 mm 11 mps 733 mmHg 87%
09:00 -2°C° 0.1 mm 10 mps 734 mmHg 84%
10:00 -2°C° 0 mm 10 mps 735 mmHg 84%
11:00 -2°C° 0 mm 10 mps 736 mmHg 83%
12:00 -2°C° 0 mm 10 mps 736 mmHg 82%
13:00 -2°C° 0.1 mm 10 mps 737 mmHg 81%
14:00 -2°C° 0.1 mm 10 mps 737 mmHg 81%
15:00 -1°C° 0.1 mm 9 mps 738 mmHg 80%
16:00 -1°C° 0.1 mm 9 mps 738 mmHg 80%
17:00 -2°C° 0.1 mm 8 mps 738 mmHg 80%
18:00 -2°C° 0.1 mm 8 mps 739 mmHg 81%
19:00 -3°C° 0.1 mm 7 mps 739 mmHg 82%
20:00 -3°C° 0.1 mm 7 mps 740 mmHg 84%
21:00 -4°C° 0.1 mm 6 mps 740 mmHg 85%
22:00 -4°C° 0.1 mm 6 mps 740 mmHg 86%
23:00 -4°C° 0.1 mm 6 mps 740 mmHg 86%

23 January, Saturday

Time Temperature Precipitation Wind Pressure Humidity
00:00 -4°C° 0.1 mm 6 mps 741 mmHg 86%
01:00 -4°C° 0.1 mm 6 mps 741 mmHg 86%
02:00 -4°C° 0.1 mm 6 mps 741 mmHg 85%
03:00 -4°C° 0.1 mm 6 mps 741 mmHg 85%
04:00 -4°C° 0.1 mm 7 mps 741 mmHg 84%
05:00 -4°C° 0.1 mm 7 mps 741 mmHg 83%
06:00 -4°C° 0.1 mm 7 mps 741 mmHg 82%
07:00 -4°C° 0 mm 6 mps 742 mmHg 82%
08:00 -4°C° 0 mm 6 mps 742 mmHg 82%
09:00 -4°C° 0 mm 6 mps 742 mmHg 83%
10:00 -3°C° 0 mm 6 mps 742 mmHg 79%
11:00 -2°C° 0 mm 7 mps 742 mmHg 76%
12:00 -1°C° 0 mm 7 mps 742 mmHg 72%
13:00 -1°C° 0.2 mm 7 mps 742 mmHg 78%
14:00 -1°C° 0.2 mm 6 mps 742 mmHg 84%
15:00 -1°C° 0.2 mm 6 mps 741 mmHg 89%
16:00 -2°C° 0.3 mm 6 mps 741 mmHg 90%
17:00 -2°C° 0.3 mm 5 mps 741 mmHg 92%
18:00 -2°C° 0.3 mm 5 mps 741 mmHg 93%
19:00 -2°C° 0 mm 5 mps 741 mmHg 91%
20:00 -4°C° 0 mm 6 mps 741 mmHg 89%
21:00 -4°C° 0 mm 6 mps 741 mmHg 88%
22:00 -4°C° 0 mm 7 mps 741 mmHg 87%
23:00 -3°C° 0 mm 7 mps 741 mmHg 87%
Show more